Lid_Strength_Index
6 7 7 10 12 8 12 13 15 12 11 8 7 7 7 6 6 5 4 4 3 2 2 2 2 1 1 1 1 1 1 0
7 6 6 8 7 12 11 16 15 12 13 11 10 9 8 7 7 5 4 4 3 3 2 2 1 1 1 1 1 1 0 0
8 8 9 9 9 9 10 11 14 14 12 8 8 8 8 7 6 5 5 4 4 3 2 2 1 1 1 1 1 1 1 0
9 7 8 7 9 8 12 13 13 13 12 7 7 7 7 7 6 5 4 4 3 4 2 2 2 2 2 1 1 1 0 0
10 9 7 8 8 8 8 9 13 13 11 7 7 7 6 6 6 5 5 4 3 3 3 3 3 2 2 2 1 1 1 1
11 9 8 10 9 8 8 11 11 11 10 9 8 7 7 6 6 5 5 4 4 3 3 3 2 2 2 2 1 1 1 1
8 8 8 8 8 8 9 9 10 9 10 8 7 7 6 6 5 5 5 4 4 4 4 3 3 2 2 2 1 1 1 1
9 8 8 9 8 8 8 8 9 9 9 6 6 6 6 6 6 6 5 4 4 4 3 3 3 2 2 2 1 1 1 1
10 9 9 11 8 8 8 8 8 10 8 7 8 7 6 6 5 5 5 5 4 4 3 3 3 2 2 2 1 1 1 1
10 10 14 8 7 7 8 7 7 7 8 7 6 6 5 4 5 5 5 4 4 3 3 2 2 2 1 1 1 1 1 1
12 11 10 8 8 9 9 8 7 7 7 7 6 6 6 4 4 4 4 3 3 2 2 2 2 1 2 2 2 2 2 1
11 12 13 8 7 6 6 10 6 7 7 7 6 9 8 4 4 4 3 3 3 2 2 2 2 1 2 2 2 2 1 1
10 11 9 6 6 5 11 9 6 6 6 7 7 6 5 4 4 3 3 3 2 2 2 2 1 1 2 2 2 1 1 1
11 12 12 5 7 9 6 5 5 6 5 6 5 5 5 4 4 3 3 3 2 2 2 2 1 1 2 2 1 1 1 1
9 9 6 5 5 4 4 5 5 5 5 5 5 5 5 4 4 3 3 3 2 2 2 2 1 1 2 2 1 1 1 1
8 6 6 5 4 4 4 4 4 4 4 4 5 4 4 4 4 3 3 3 2 2 3 2 1 1 1 1 1 1 1 1
8 6 6 5 5 4 4 4 4 4 4 4 4 4 4 4 3 3 3 2 2 2 3 2 1 1 1 1 1 1 1 1
8 5 6 5 4 4 4 4 4 4 4 4 3 4 4 4 3 3 3 2 2 2 2 2 2 1 1 0 0 1 2 1
6 5 5 5 4 3 4 4 4 4 3 4 3 3 3 3 3 3 2 2 2 2 2 2 1 1 1 0 0 1 1 1